| time (UTC) | temp F | wind direction | speed MPH | gust MPH | rain 1hr in | rain 24hr in | rain mn in | humidity % | barometer mb |
| 20260503171552 | 70 | 208 | 1.0 | 4.0 | 0.00 | 0.00 | 0.00 | 33 | 1002.3 |
| 20260503081556 | 63 | 203 | 0.0 | 3.0 | 0.00 | 0.00 | 0.00 | 56 | 1003.7 |
| 20260503071538 | 64 | 359 | 0.0 | 1.0 | 0.00 | 0.00 | 0.00 | 39 | 1003.9 |
| 20260503054552 | 67 | 184 | 1.0 | 3.0 | 0.00 | 0.00 | 0.00 | 27 | 1004.2 |
| 20260503053039 | 68 | 183 | 1.0 | 3.0 | 0.00 | 0.00 | 0.00 | 26 | 1003.9 |
| 20260503051532 | 69 | 183 | 1.0 | 3.0 | 0.00 | 0.00 | 0.00 | 24 | 1003.9 |
| 20260503050033 | 69 | 213 | 1.0 | 4.0 | 0.00 | 0.00 | 0.00 | 25 | 1004.0 |
| 20260503044532 | 69 | 206 | 0.0 | 3.0 | 0.00 | 0.00 | 0.00 | 26 | 1004.0 |
| 20260503043031 | 68 | 183 | 0.0 | 2.0 | 0.00 | 0.00 | 0.00 | 28 | 1003.7 |
| 20260503041531 | 69 | 154 | 0.0 | 2.0 | 0.00 | 0.00 | 0.00 | 27 | 1003.5 |
| 20260503040036 | 69 | 201 | 0.0 | 4.0 | 0.00 | 0.00 | 0.00 | 26 | 1003.3 |
| 20260503034530 | 70 | 190 | 1.0 | 8.0 | 0.00 | 0.00 | 0.00 | 28 | 1003.2 |
| 20260503033031 | 70 | 216 | 1.0 | 4.0 | 0.00 | 0.00 | 0.00 | 29 | 1003.0 |
| 20260503031529 | 70 | 213 | 1.0 | 2.0 | 0.00 | 0.00 | 0.00 | 31 | 1002.9 |
| 20260503030029 | 70 | 175 | 1.0 | 3.0 | 0.00 | 0.00 | 0.00 | 29 | 1002.7 |
| 20260503024528 | 71 | 205 | 0.0 | 2.0 | 0.00 | 0.00 | 0.00 | 30 | 1002.4 |
| 20260503023027 | 72 | 359 | 0.0 | 3.0 | 0.00 | 0.00 | 0.00 | 29 | 1002.4 |
| 20260503021527 | 72 | 196 | 0.0 | 3.0 | 0.00 | 0.00 | 0.00 | 30 | 1002.3 |
| 20260503020027 | 73 | 359 | 1.0 | 3.0 | 0.00 | 0.00 | 0.00 | 34 | 1002.3 |
| 20260503014527 | 74 | 170 | 1.0 | 4.0 | 0.00 | 0.00 | 0.00 | 32 | 1002.4 |
| 20260503013026 | 75 | 204 | 1.0 | 6.0 | 0.00 | 0.00 | 0.00 | 30 | 1002.3 |
| 20260503011526 | 76 | 204 | 1.0 | 2.0 | 0.00 | 0.00 | 0.00 | 26 | 1002.3 |
| 20260503010028 | 77 | 198 | 1.0 | 6.0 | 0.00 | 0.00 | 0.00 | 25 | 1002.3 |
| 20260503004525 | 77 | 210 | 1.0 | 3.0 | 0.00 | 0.00 | 0.00 | 24 | 1002.5 |
| 20260503003027 | 78 | 211 | 1.0 | 3.0 | 0.00 | 0.00 | 0.00 | 22 | 1002.4 |
| 20260503001522 | 78 | 199 | 1.0 | 4.0 | 0.00 | 0.00 | 0.00 | 23 | 1002.4 |
| 20260503000021 | 79 | 206 | 0.0 | 4.0 | 0.00 | 0.00 | 0.00 | 23 | 1002.5 |
| 20260502234525 | 79 | 220 | 1.0 | 5.0 | 0.00 | 0.00 | 0.00 | 21 | 1002.5 |
| 20260502233019 | 79 | 191 | 1.0 | 3.0 | 0.00 | 0.00 | 0.00 | 20 | 1002.6 |
| 20260502231523 | 79 | 177 | 1.0 | 3.0 | 0.00 | 0.00 | 0.00 | 21 | 1002.7 |
| 20260502230017 | 79 | 206 | 1.0 | 8.0 | 0.00 | 0.00 | 0.00 | 19 | 1002.7 |
| 20260502224517 | 79 | 193 | 1.0 | 6.0 | 0.00 | 0.00 | 0.00 | 19 | 1002.9 |
| 20260502223014 | 79 | 201 | 1.0 | 4.0 | 0.00 | 0.00 | 0.00 | 19 | 1003.3 |
| 20260502221515 | 79 | 233 | 1.0 | 3.0 | 0.00 | 0.00 | 0.00 | 18 | 1003.5 |
| 20260502220014 | 80 | 197 | 1.0 | 7.0 | 0.00 | 0.00 | 0.00 | 19 | 1003.7 |
| 20260502214528 | 79 | 197 | 2.0 | 9.0 | 0.00 | 0.00 | 0.00 | 17 | 1003.8 |
| 20260502213008 | 81 | 256 | 1.0 | 7.0 | 0.00 | 0.00 | 0.00 | 17 | 1004.1 |
| 20260502211512 | 80 | 214 | 1.0 | 4.0 | 0.00 | 0.00 | 0.00 | 18 | 1004.0 |
| 20260502210016 | 80 | 177 | 1.0 | 11.0 | 0.00 | 0.00 | 0.00 | 17 | 1004.1 |
| 20260502204507 | 80 | 191 | 1.0 | 3.0 | 0.00 | 0.00 | 0.00 | 16 | 1004.3 |
| 20260502203101 | 80 | 204 | 1.0 | 6.0 | 0.00 | 0.00 | 0.00 | 17 | 1004.6 |
| 20260502201558 | 80 | 199 | 1.0 | 6.0 | 0.00 | 0.00 | 0.00 | 18 | 1004.8 |
| 20260502200058 | 80 | 185 | 1.0 | 5.0 | 0.00 | 0.00 | 0.00 | 19 | 1004.9 |
| 20260502194554 | 79 | 162 | 1.0 | 4.0 | 0.00 | 0.00 | 0.00 | 17 | 1005.0 |
| 20260502193053 | 80 | 210 | 1.0 | 5.0 | 0.00 | 0.00 | 0.00 | 17 | 1005.3 |
| 20260502191549 | 80 | 201 | 0.0 | 6.0 | 0.00 | 0.00 | 0.00 | 16 | 1005.4 |
| 20260502190047 | 80 | 236 | 0.0 | 3.0 | 0.00 | 0.00 | 0.00 | 15 | 1005.6 |
| 20260502184555 | 80 | 144 | 0.0 | 2.0 | 0.00 | 0.00 | 0.00 | 16 | 1005.8 |
| 20260502183044 | 79 | 87 | 1.0 | 4.0 | 0.00 | 0.00 | 0.00 | 16 | 1005.8 |
| 20260502181545 | 78 | 199 | 0.0 | 0.0 | 0.00 | 0.00 | 0.00 | 17 | 1006.2 |